TimeEDT,TemperatureF,Dew PointF,Humidity,Sea Level PressureIn,VisibilityMPH,Wind Direction,Wind SpeedMPH,Gust SpeedMPH,PrecipitationIn,Events,Conditions,WindDirDegrees,DateUTC
12:15 AM,61.9,56.3,82,30.08,10.0,Calm,Calm,-,N/A,,Mostly Cloudy,0,2013-07-30 04:15:00
12:35 AM,61.7,56.5,83,30.08,10.0,Calm,Calm,-,N/A,,Overcast,0,2013-07-30 04:35:00
12:55 AM,64.4,54.3,70,30.08,10.0,Calm,Calm,-,N/A,,Overcast,0,2013-07-30 04:55:00
1:15 AM,61.9,55.8,80,30.08,10.0,Calm,Calm,-,N/A,,Overcast,0,2013-07-30 05:15:00
1:35 AM,61.9,56.7,83,30.08,10.0,Calm,Calm,-,N/A,,Overcast,0,2013-07-30 05:35:00
1:55 AM,61.9,55.9,81,30.07,10.0,Calm,Calm,-,N/A,,Overcast,0,2013-07-30 05:55:00
2:15 AM,61.9,57.2,85,30.08,10.0,Calm,Calm,-,N/A,,Overcast,0,2013-07-30 06:15:00
2:35 AM,61.7,57.4,86,30.08,10.0,SSE,3.5,-,N/A,,Overcast,160,2013-07-30 06:35:00
2:55 AM,61.9,56.7,83,30.08,10.0,Calm,Calm,-,N/A,,Drizzle,0,2013-07-30 06:55:00
3:15 AM,64.2,55.4,73,30.07,10.0,WSW,3.5,-,N/A,,Overcast,250,2013-07-30 07:15:00
3:35 AM,63.9,55.0,73,30.07,10.0,Calm,Calm,-,N/A,,Overcast,0,2013-07-30 07:35:00
3:55 AM,64.0,55.0,73,30.07,10.0,Calm,Calm,-,N/A,,Overcast,0,2013-07-30 07:55:00
4:15 AM,64.2,55.2,73,30.07,10.0,West,3.5,-,N/A,,Mostly Cloudy,260,2013-07-30 08:15:00
4:35 AM,63.0,54.0,72,30.08,10.0,Calm,Calm,-,N/A,,Mostly Cloudy,0,2013-07-30 08:35:00
4:55 AM,62.4,54.1,74,30.08,10.0,Calm,Calm,-,N/A,,Mostly Cloudy,0,2013-07-30 08:55:00
5:15 AM,60.8,54.5,80,30.08,10.0,Calm,Calm,-,N/A,,Mostly Cloudy,0,2013-07-30 09:15:00
5:35 AM,60.1,54.5,82,30.08,10.0,Calm,Calm,-,N/A,,Mostly Cloudy,0,2013-07-30 09:35:00
5:55 AM,60.6,54.5,80,30.08,10.0,Calm,Calm,-,N/A,,Scattered Clouds,0,2013-07-30 09:55:00
6:15 AM,59.4,54.5,84,30.09,10.0,Calm,Calm,-,N/A,,Scattered Clouds,0,2013-07-30 10:15:00
6:35 AM,60.1,54.9,83,30.09,10.0,Calm,Calm,-,N/A,,Scattered Clouds,0,2013-07-30 10:35:00
6:55 AM,61.9,54.7,77,30.09,10.0,West,3.5,-,N/A,,Clear,270,2013-07-30 10:55:00
7:15 AM,64.4,55.0,72,30.09,10.0,Calm,Calm,-,N/A,,Clear,0,2013-07-30 11:15:00
7:35 AM,64.6,54.9,71,30.10,10.0,Calm,Calm,-,N/A,,Clear,0,2013-07-30 11:35:00
7:55 AM,67.1,56.7,69,30.11,10.0,WSW,3.5,-,N/A,,Clear,250,2013-07-30 11:55:00
8:15 AM,67.1,55.6,66,30.11,10.0,Calm,Calm,-,N/A,,Clear,0,2013-07-30 12:15:00
8:35 AM,69.4,56.7,64,30.11,10.0,West,4.6,-,N/A,,Clear,260,2013-07-30 12:35:00
8:55 AM,69.4,56.3,63,30.12,10.0,Calm,Calm,-,N/A,,Clear,0,2013-07-30 12:55:00
9:15 AM,69.4,55.8,62,30.12,10.0,SW,3.5,-,N/A,,Clear,220,2013-07-30 13:15:00
9:35 AM,69.4,55.0,60,30.12,10.0,SW,4.6,-,N/A,,Clear,230,2013-07-30 13:35:00
9:55 AM,69.4,53.4,57,30.12,10.0,WSW,6.9,-,N/A,,Scattered Clouds,240,2013-07-30 13:55:00
10:15 AM,70.2,54.5,57,30.12,10.0,WSW,5.8,-,N/A,,Scattered Clouds,240,2013-07-30 14:15:00
10:35 AM,72.3,55.0,54,30.12,10.0,West,3.5,-,N/A,,Clear,270,2013-07-30 14:35:00
10:55 AM,73.8,56.1,54,30.12,10.0,WSW,8.1,-,N/A,,Scattered Clouds,240,2013-07-30 14:55:00
11:15 AM,74.5,56.3,53,30.11,10.0,West,3.5,-,N/A,,Clear,260,2013-07-30 15:15:00
11:35 AM,74.5,55.9,52,30.11,10.0,SW,5.8,-,N/A,,Clear,220,2013-07-30 15:35:00
11:55 AM,74.5,54.1,49,30.11,10.0,West,4.6,-,N/A,,Clear,260,2013-07-30 15:55:00
12:15 PM,75.6,55.0,49,30.10,10.0,West,4.6,-,N/A,,Scattered Clouds,270,2013-07-30 16:15:00
12:35 PM,74.5,53.6,48,30.10,10.0,West,5.8,-,N/A,,Mostly Cloudy,270,2013-07-30 16:35:00
12:55 PM,74.5,54.7,50,30.10,10.0,Calm,Calm,-,N/A,,Mostly Cloudy,0,2013-07-30 16:55:00
1:15 PM,74.5,56.3,53,30.10,10.0,West,3.5,-,N/A,,Overcast,270,2013-07-30 17:15:00
1:35 PM,74.3,56.8,54,30.10,10.0,WSW,4.6,-,N/A,,Mostly Cloudy,240,2013-07-30 17:35:00
1:55 PM,77.0,54.9,46,30.09,10.0,SW,6.9,-,N/A,,Scattered Clouds,220,2013-07-30 17:55:00
2:35 PM,79.7,53.2,40,30.08,10.0,West,4.6,-,N/A,,Mostly Cloudy,260,2013-07-30 18:35:00
2:55 PM,78.3,52.3,40,30.08,10.0,West,4.6,-,N/A,,Scattered Clouds,270,2013-07-30 18:55:00
3:15 PM,77.5,55.2,46,30.07,10.0,WSW,4.6,-,N/A,,Mostly Cloudy,250,2013-07-30 19:15:00
3:35 PM,76.5,55.9,49,30.07,10.0,WSW,8.1,-,N/A,,Mostly Cloudy,250,2013-07-30 19:35:00
3:55 PM,79.7,55.4,43,30.07,10.0,WSW,5.8,-,N/A,,Scattered Clouds,240,2013-07-30 19:55:00
4:15 PM,79.7,54.3,41,30.06,10.0,WSW,6.9,-,N/A,,Mostly Cloudy,250,2013-07-30 20:15:00
4:35 PM,75.7,54.9,48,30.06,10.0,Calm,Calm,-,N/A,,Mostly Cloudy,0,2013-07-30 20:35:00
4:55 PM,74.5,55.0,51,30.06,10.0,Calm,Calm,-,N/A,,Overcast,0,2013-07-30 20:55:00
5:15 PM,74.5,54.7,50,30.06,10.0,Calm,Calm,-,N/A,,Overcast,0,2013-07-30 21:15:00
5:35 PM,75.6,56.8,52,30.06,10.0,SW,3.5,-,N/A,,Overcast,230,2013-07-30 21:35:00
5:55 PM,77.0,55.4,47,30.05,10.0,West,4.6,-,N/A,,Scattered Clouds,260,2013-07-30 21:55:00
6:15 PM,77.0,53.6,44,30.05,10.0,WNW,4.6,-,N/A,,Scattered Clouds,300,2013-07-30 22:15:00
6:35 PM,77.0,54.5,46,30.06,10.0,Calm,Calm,-,N/A,,Scattered Clouds,0,2013-07-30 22:35:00
6:55 PM,77.0,55.6,47,30.07,10.0,WNW,6.9,-,N/A,,Scattered Clouds,300,2013-07-30 22:55:00
7:15 PM,74.5,54.5,50,30.07,10.0,WNW,4.6,-,N/A,,Clear,300,2013-07-30 23:15:00
7:35 PM,74.5,55.6,52,30.07,10.0,WNW,5.8,-,N/A,,Clear,300,2013-07-30 23:35:00
7:55 PM,74.3,57.0,55,30.08,10.0,Calm,Calm,-,N/A,,Scattered Clouds,0,2013-07-30 23:55:00
8:15 PM,70.5,54.7,57,30.08,10.0,Calm,Calm,-,N/A,,Scattered Clouds,0,2013-07-31 00:15:00
8:35 PM,69.4,54.7,59,30.08,10.0,West,3.5,-,N/A,,Clear,270,2013-07-31 00:35:00
8:55 PM,69.4,55.9,62,30.08,10.0,Calm,Calm,-,N/A,,Clear,0,2013-07-31 00:55:00
9:15 PM,69.3,57.4,66,30.08,10.0,Calm,Calm,-,N/A,,Clear,0,2013-07-31 01:15:00
9:35 PM,66.7,56.7,70,30.08,7.0,Calm,Calm,-,N/A,,Clear,0,2013-07-31 01:35:00
9:55 PM,64.4,55.8,73,30.09,10.0,Calm,Calm,-,N/A,,Clear,0,2013-07-31 01:55:00
10:15 PM,63.3,55.4,75,30.09,10.0,Calm,Calm,-,N/A,,Clear,0,2013-07-31 02:15:00
10:35 PM,61.9,55.6,80,30.09,7.0,Calm,Calm,-,N/A,,Clear,0,2013-07-31 02:35:00
10:55 PM,62.2,56.1,80,30.09,10.0,Calm,Calm,-,N/A,,Clear,0,2013-07-31 02:55:00
11:15 PM,63.7,56.3,77,30.10,10.0,Calm,Calm,-,N/A,,Clear,0,2013-07-31 03:15:00
11:35 PM,63.7,56.1,76,30.10,10.0,Calm,Calm,-,N/A,,Clear,0,2013-07-31 03:35:00
11:55 PM,62.8,55.0,76,30.10,10.0,Calm,Calm,-,N/A,,Clear,0,2013-07-31 03:55:00